Вернуться в каталог

FENGYUN 1C DEB

АктивенSSO
NORAD 33740·DEBRIS·🇨🇳 China

Запущен May 10, 1999 с Taiyuan Satellite Launch Center

Loading…

Ближайшие Пролёты (ближайшие 24 часа)

TLE

СвежийSource: Space-Track

Эпоха: Sep 14, 2026, 06:48 UTC

1 33740U 99025DJD 26257.28372859  .00000091  00000-0  72164-4 0  9992
2 33740  98.6817 266.6843 0002539  91.3484 268.7979 14.12452350940368

Отслеживайте FENGYUN 1C DEB в реальном времени с AllMySat

Download on the App Store